Showing default

HAWK-6A, 55327

Orbit data source: Space-Track

HAWK-6A, 55327 is a payload satellite owned by HawkEye 360 (US) in LEO that was launched on Tue, 24 Jan 2023 UTC via an ELECTRON launch vehicle from the Wallops Island (WLPIS). Payload-class satellites include a variety of spacecraft equipped with specific instruments for various scientific and technological missions. These include communications satellites like Starlink; space stations such as the ISS; scientific satellites like the Hubble; Earth observation satellites from companies like Planet Labs, Umbra, and HawkEye 360; GPS; miniature CubeSats for education and research; and military/defense satellites.

Loading next visibility...
Identifier
55327, 2023-011D
Orbit
LEO
Country
Flag of USUS
Related business
Manufacturer
UTIAS-SFL
Mission
Operational Commercial Sigint
Bus & Motor
HAWK2G, Unknown motor
Mass
31 kg wet, 30 kg dry
Launch date (UTC)
2023-01-24 (3 years ago)
Launch vehicle
ELECTRON
Launch site
Wallops Island (WLPIS)
Object type
Payload
Rocket body
Debris
Shape & HBR
Box + 2 Pan, 1.0 m
Radar Cross Section
0.240 m², Medium (>0.1 m² and < 1m²)

Expand to show TLE details & history
Last TLE update: 3 days ago

TLE from 3 days ago
0 HAWK-6A
1 55327U 23011D   26170.87108723  .00003931  00000-0  17202-3 0  9992
2 55327  40.5001 334.8809 0002470   2.7787 357.3036 15.22952483188266
Epoch: 2026-06-19T20:54Z
TLE epoch observation values (Epoch: 2026-06-19T20:54:21.936Z)
Latitude
-0°
Longitude
113.19565°
Altitude
494.744 km
Speed
7.62 km/s
True Right ascension
22h 19m 31s
True Declination
0° 00' 00"
Sunlit
Object was in daylight at epoch
Visualization orbit readout
Latitude
Unknown
Longitude
Unknown
Altitude
Unknown
Speed
Unknown
Apparent Right ascension
Unknown
Apparent Declination
Unknown
Sunlit
N/A
Visualization observer readout
Local Sidereal Time
21:41:16
Azimuth
Unknown
Elevation
Unknown
Doppler factor
Unknown
Orbital elements
Apogee altitude
500.997 km
Perigee altitude
497.6 km
Semi-major axis
6,877.435 km
Eccentricity
0.00025
Inclination
40.5001°
RAAN
334.8809°
Arg. of periapsis
2.7787°
True anomaly
357.30227°
Mean anomaly
357.3036°
Eccentric anomaly
357.30293°
Mean motion
3.80543 °/min
Orbital period
94.6 mins
BSTAR
0.00017202
Loading maneuver chart data...
Computing Atmospheric mass density...
Loading historical data...
Loading historical data...
Loading historical data...
Loading historical data...
Loading historical data...
Loading historical data...
Loading historical data...

Documentation

Showing up to 5 results
|